When you browse on this site, cookies collect data to enhance your experience and personalize the content and advertising you see.
Visit our Privacy Policy to learn more. By continuing to use the site, you agree to this use of cookies and data.
  • în România
  • Lista ţărilor
  • Pe 7 zile
  • Temperatura apei
  • Meteo pe hartă
  • Widget-uri
  • user-avatar
    Intrare

    Meteo pe oră la Ghanzi

    Astăzi, 22 Septembrie, Duminică

    Timp Temperatura Precipitaţii Vânt Presiune Umiditate
    00:00 +27°C° 0 mm 5 m/s 715 mmHg 21%
    01:00 +26°C° 0 mm 6 m/s 715 mmHg 24%
    02:00 +26°C° 0 mm 6 m/s 715 mmHg 26%
    03:00 +25°C° 0 mm 5 m/s 715 mmHg 28%
    04:00 +25°C° 0 mm 5 m/s 716 mmHg 29%
    05:00 +24°C° 0 mm 6 m/s 716 mmHg 29%
    06:00 +26°C° 0 mm 6 m/s 716 mmHg 28%
    07:00 +27°C° 0 mm 6 m/s 717 mmHg 28%
    08:00 +29°C° 0 mm 7 m/s 717 mmHg 25%
    09:00 +33°C° 0 mm 7 m/s 717 mmHg 22%
    10:00 +35°C° 0 mm 7 m/s 718 mmHg 20%
    11:00 +36°C° 0 mm 7 m/s 717 mmHg 18%
    12:00 +38°C° 0 mm 6 m/s 716 mmHg 17%
    13:00 +38°C° 0 mm 6 m/s 715 mmHg 15%
    14:00 +38°C° 0 mm 6 m/s 715 mmHg 15%
    15:00 +38°C° 0 mm 6 m/s 715 mmHg 15%
    16:00 +37°C° 0 mm 5 m/s 714 mmHg 15%
    17:00 +36°C° 0 mm 5 m/s 715 mmHg 17%
    18:00 +34°C° 0 mm 5 m/s 715 mmHg 19%
    19:00 +32°C° 0 mm 4 m/s 715 mmHg 21%
    20:00 +32°C° 0 mm 4 m/s 715 mmHg 22%
    21:00 +30°C° 0 mm 5 m/s 716 mmHg 23%
    22:00 +29°C° 0 mm 5 m/s 716 mmHg 24%
    23:00 +29°C° 0 mm 5 m/s 716 mmHg 27%

    Mâine, 23 Septembrie, Luni

    Timp Temperatura Precipitaţii Vânt Presiune Umiditate
    00:00 +28°C° 0 mm 6 m/s 715 mmHg 30%
    01:00 +27°C° 0 mm 6 m/s 715 mmHg 32%
    02:00 +27°C° 0 mm 6 m/s 715 mmHg 34%
    03:00 +26°C° 0 mm 6 m/s 715 mmHg 36%
    04:00 +26°C° 0 mm 6 m/s 716 mmHg 38%
    05:00 +26°C° 0 mm 6 m/s 716 mmHg 38%
    06:00 +26°C° 0 mm 6 m/s 716 mmHg 38%
    07:00 +27°C° 0 mm 7 m/s 717 mmHg 38%
    08:00 +29°C° 0 mm 6 m/s 717 mmHg 33%
    09:00 +32°C° 0 mm 6 m/s 717 mmHg 29%
    10:00 +35°C° 0 mm 6 m/s 717 mmHg 24%
    11:00 +36°C° 0 mm 5 m/s 716 mmHg 22%
    12:00 +37°C° 0 mm 5 m/s 716 mmHg 19%
    13:00 +38°C° 0 mm 4 m/s 715 mmHg 17%
    14:00 +38°C° 0 mm 4 m/s 715 mmHg 16%
    15:00 +38°C° 0 mm 4 m/s 714 mmHg 15%
    16:00 +38°C° 0 mm 4 m/s 714 mmHg 15%
    17:00 +36°C° 0 mm 4 m/s 714 mmHg 17%
    18:00 +35°C° 0 mm 5 m/s 715 mmHg 19%
    19:00 +33°C° 0 mm 5 m/s 715 mmHg 21%
    20:00 +32°C° 0 mm 5 m/s 715 mmHg 23%
    21:00 +30°C° 0 mm 6 m/s 716 mmHg 24%
    22:00 +29°C° 0 mm 6 m/s 716 mmHg 26%
    23:00 +28°C° 0 mm 6 m/s 716 mmHg 26%

    Poimâine, 24 Septembrie, Marţi

    Timp Temperatura Precipitaţii Vânt Presiune Umiditate
    00:00 +27°C° 0 mm 6 m/s 715 mmHg 26%
    01:00 +27°C° 0 mm 6 m/s 715 mmHg 27%
    02:00 +26°C° 0 mm 6 m/s 715 mmHg 27%
    03:00 +26°C° 0 mm 6 m/s 715 mmHg 28%
    04:00 +24°C° 0 mm 6 m/s 716 mmHg 28%
    05:00 +24°C° 0 mm 6 m/s 716 mmHg 29%
    06:00 +26°C° 0 mm 6 m/s 716 mmHg 29%
    07:00 +26°C° 0 mm 6 m/s 717 mmHg 29%
    08:00 +28°C° 0 mm 5 m/s 717 mmHg 26%
    09:00 +32°C° 0 mm 5 m/s 717 mmHg 23%
    10:00 +34°C° 0 mm 5 m/s 717 mmHg 20%
    11:00 +35°C° 0 mm 4 m/s 716 mmHg 18%
    12:00 +36°C° 0 mm 4 m/s 716 mmHg 17%
    13:00 +38°C° 0 mm 4 m/s 715 mmHg 15%
    14:00 +38°C° 0 mm 4 m/s 715 mmHg 14%
    15:00 +38°C° 0 mm 4 m/s 714 mmHg 13%
    16:00 +38°C° 0 mm 4 m/s 714 mmHg 13%
    17:00 +36°C° 0 mm 4 m/s 714 mmHg 14%
    18:00 +34°C° 0 mm 4 m/s 714 mmHg 15%
    19:00 +32°C° 0 mm 5 m/s 714 mmHg 17%
    20:00 +30°C° 0 mm 5 m/s 714 mmHg 18%
    21:00 +29°C° 0 mm 5 m/s 715 mmHg 19%
    22:00 +28°C° 0 mm 5 m/s 715 mmHg 20%
    23:00 +28°C° 0 mm 5 m/s 715 mmHg 21%

    25 Septembrie, Miercuri

    Timp Temperatura Precipitaţii Vânt Presiune Umiditate
    00:00 +27°C° 0 mm 5 m/s 714 mmHg 21%
    01:00 +26°C° 0 mm 6 m/s 714 mmHg 22%
    02:00 +25°C° 0 mm 5 m/s 714 mmHg 23%
    03:00 +23°C° 0 mm 5 m/s 715 mmHg 24%
    04:00 +23°C° 0 mm 4 m/s 715 mmHg 25%
    05:00 +23°C° 0 mm 4 m/s 715 mmHg 24%
    06:00 +25°C° 0 mm 4 m/s 716 mmHg 23%
    07:00 +26°C° 0 mm 4 m/s 716 mmHg 21%
    08:00 +28°C° 0 mm 4 m/s 716 mmHg 19%
    09:00 +32°C° 0 mm 4 m/s 717 mmHg 16%
    10:00 +34°C° 0 mm 4 m/s 717 mmHg 13%
    11:00 +35°C° 0 mm 4 m/s 716 mmHg 12%
    12:00 +36°C° 0 mm 4 m/s 716 mmHg 11%
    13:00 +38°C° 0 mm 3 m/s 715 mmHg 10%
    14:00 +38°C° 0 mm 4 m/s 715 mmHg 9%
    15:00 +38°C° 0 mm 4 m/s 714 mmHg 9%
    16:00 +38°C° 0 mm 4 m/s 714 mmHg 9%
    17:00 +36°C° 0 mm 4 m/s 714 mmHg 10%
    18:00 +34°C° 0 mm 4 m/s 714 mmHg 11%
    19:00 +32°C° 0 mm 4 m/s 715 mmHg 12%
    20:00 +30°C° 0 mm 4 m/s 715 mmHg 12%
    21:00 +29°C° 0 mm 5 m/s 715 mmHg 12%
    22:00 +29°C° 0 mm 5 m/s 715 mmHg 13%
    23:00 +28°C° 0 mm 5 m/s 715 mmHg 13%

    26 Septembrie, Joi

    Timp Temperatura Precipitaţii Vânt Presiune Umiditate
    00:00 +27°C° 0 mm 4 m/s 715 mmHg 14%
    01:00 +27°C° 0 mm 4 m/s 715 mmHg 15%
    02:00 +26°C° 0 mm 4 m/s 715 mmHg 17%
    03:00 +25°C° 0 mm 4 m/s 715 mmHg 19%
    04:00 +25°C° 0 mm 4 m/s 715 mmHg 21%
    05:00 +25°C° 0 mm 4 m/s 716 mmHg 21%
    06:00 +26°C° 0 mm 4 m/s 716 mmHg 20%
    07:00 +27°C° 0 mm 4 m/s 717 mmHg 19%
    08:00 +29°C° 0 mm 4 m/s 717 mmHg 16%
    09:00 +33°C° 0 mm 4 m/s 717 mmHg 13%
    10:00 +36°C° 0 mm 5 m/s 717 mmHg 9%
    11:00 +37°C° 0 mm 5 m/s 717 mmHg 8%
    12:00 +38°C° 0 mm 4 m/s 716 mmHg 7%
    13:00 +40°C° 0 mm 4 m/s 715 mmHg 6%
    14:00 +40°C° 0 mm 4 m/s 715 mmHg 6%
    15:00 +40°C° 0 mm 5 m/s 715 mmHg 6%
    16:00 +40°C° 0 mm 5 m/s 714 mmHg 6%
    17:00 +37°C° 0 mm 5 m/s 714 mmHg 7%
    18:00 +35°C° 0 mm 5 m/s 714 mmHg 8%
    19:00 +33°C° 0 mm 5 m/s 715 mmHg 9%
    20:00 +32°C° 0 mm 4 m/s 715 mmHg 10%
    21:00 +32°C° 0 mm 4 m/s 715 mmHg 10%
    22:00 +30°C° 0 mm 4 m/s 715 mmHg 11%
    23:00 +30°C° 0 mm 5 m/s 715 mmHg 13%

    27 Septembrie, Vineri

    Timp Temperatura Precipitaţii Vânt Presiune Umiditate
    00:00 +29°C° 0 mm 6 m/s 715 mmHg 15%
    01:00 +29°C° 0 mm 6 m/s 715 mmHg 18%
    02:00 +28°C° 0 mm 6 m/s 715 mmHg 22%
    03:00 +27°C° 0 mm 6 m/s 715 mmHg 26%
    04:00 +27°C° 0 mm 6 m/s 715 mmHg 30%
    05:00 +27°C° 0 mm 6 m/s 715 mmHg 30%
    06:00 +28°C° 0 mm 6 m/s 716 mmHg 30%
    07:00 +29°C° 0 mm 7 m/s 716 mmHg 30%
    08:00 +32°C° 0 mm 7 m/s 716 mmHg 25%
    09:00 +35°C° 0 mm 6 m/s 716 mmHg 20%
    10:00 +38°C° 0 mm 6 m/s 717 mmHg 14%
    11:00 +39°C° 0 mm 5 m/s 716 mmHg 13%
    12:00 +39°C° 0 mm 3 m/s 715 mmHg 11%
    13:00 +40°C° 0 mm 2 m/s 714 mmHg 9%
    14:00 +40°C° 0 mm 2 m/s 714 mmHg 9%
    15:00 +40°C° 0 mm 1 m/s 714 mmHg 9%
    16:00 +40°C° 0 mm 1 m/s 713 mmHg 8%
    17:00 +37°C° 0 mm 1 m/s 713 mmHg 10%
    18:00 +35°C° 0 mm 2 m/s 713 mmHg 11%
    19:00 +32°C° 0 mm 2 m/s 713 mmHg 13%
    20:00 +33°C° 0 mm 3 m/s 714 mmHg 13%
    21:00 +31°C° 0 mm 3 m/s 714 mmHg 13%
    22:00 +32°C° 0 mm 4 m/s 714 mmHg 14%
    23:00 +30°C° 0 mm 5 m/s 714 mmHg 17%
    Arată mai mult